| time (UTC) | temp F | wind direction | speed MPH | gust MPH | rain 1hr in | rain 24hr in | rain mn in | humidity % | barometer mb |
| 20260508210025 | 73 | 289 | 0.0 | 7.0 | 0.00 | 0.00 | 0.00 | 30 | 1013.3 |
| 20260508204525 | 74 | 194 | 0.0 | 7.0 | 0.00 | 0.00 | 0.00 | 30 | 1013.5 |
| 20260508203027 | 74 | 299 | 0.0 | 4.0 | 0.00 | 0.00 | 0.00 | 31 | 1013.5 |
| 20260508201525 | 74 | 174 | 0.0 | 4.0 | 0.00 | 0.00 | 0.00 | 31 | 1013.6 |
| 20260508200027 | 74 | 225 | 0.0 | 5.0 | 0.00 | 0.00 | 0.00 | 31 | 1013.5 |
| 20260508194523 | 75 | 180 | 0.0 | 4.0 | 0.00 | 0.00 | 0.00 | 30 | 1014.0 |
| 20260508193031 | 75 | 280 | 1.0 | 4.0 | 0.00 | 0.00 | 0.00 | 33 | 1014.1 |
| 20260508191535 | 75 | 198 | 0.0 | 3.0 | 0.00 | 0.00 | 0.00 | 32 | 1014.4 |
| 20260508190030 | 75 | 208 | 0.0 | 3.0 | 0.00 | 0.00 | 0.00 | 31 | 1014.6 |
| 20260508184524 | 74 | 184 | 0.0 | 4.0 | 0.00 | 0.00 | 0.00 | 32 | 1014.8 |
| 20260508183027 | 74 | 246 | 0.0 | 3.0 | 0.00 | 0.00 | 0.00 | 32 | 1015.1 |
| 20260508181523 | 75 | 246 | 0.0 | 3.0 | 0.00 | 0.00 | 0.00 | 31 | 1015.2 |
| 20260508180019 | 73 | 225 | 0.0 | 9.0 | 0.00 | 0.00 | 0.00 | 34 | 1015.5 |
| 20260508174516 | 73 | 286 | 0.0 | 4.0 | 0.00 | 0.00 | 0.00 | 31 | 1015.6 |
| 20260508173016 | 73 | 130 | 0.0 | 4.0 | 0.00 | 0.00 | 0.00 | 34 | 1015.7 |
| 20260508171514 | 72 | 277 | 0.0 | 3.0 | 0.00 | 0.00 | 0.00 | 32 | 1015.8 |
| 20260508170015 | 72 | 190 | 1.0 | 6.0 | 0.00 | 0.00 | 0.00 | 33 | 1016.1 |
| 20260508164517 | 72 | 161 | 0.0 | 5.0 | 0.00 | 0.00 | 0.00 | 31 | 1016.3 |
| 20260508163009 | 71 | 213 | 0.0 | 4.0 | 0.00 | 0.00 | 0.00 | 35 | 1016.7 |
| 20260508161507 | 71 | 300 | 0.0 | 4.0 | 0.00 | 0.00 | 0.00 | 35 | 1016.9 |
| 20260508160008 | 70 | 255 | 0.0 | 3.0 | 0.00 | 0.00 | 0.00 | 36 | 1017.0 |
| 20260508154606 | 68 | 153 | 0.0 | 4.0 | 0.00 | 0.00 | 0.00 | 38 | 1017.1 |
| 20260508153058 | 67 | 242 | 0.0 | 2.0 | 0.00 | 0.00 | 0.00 | 38 | 1017.3 |
| 20260508151556 | 67 | 219 | 0.0 | 3.0 | 0.00 | 0.00 | 0.00 | 41 | 1017.4 |
| 20260508150052 | 67 | 84 | 0.0 | 0.0 | 0.00 | 0.00 | 0.00 | 43 | 1017.6 |
| 20260508144548 | 66 | 92 | 0.0 | 0.0 | 0.00 | 0.00 | 0.00 | 43 | 1017.6 |
| 20260508143046 | 65 | 88 | 0.0 | 0.0 | 0.00 | 0.00 | 0.00 | 50 | 1017.7 |
| 20260508141540 | 63 | 86 | 0.0 | 0.0 | 0.00 | 0.00 | 0.00 | 51 | 1017.7 |
| 20260508140040 | 62 | 86 | 0.0 | 0.0 | 0.00 | 0.00 | 0.00 | 56 | 1017.9 |
| 20260508134534 | 59 | 85 | 0.0 | 0.0 | 0.00 | 0.00 | 0.00 | 55 | 1017.9 |
| 20260508133028 | 58 | 85 | 0.0 | 0.0 | 0.00 | 0.00 | 0.00 | 64 | 1017.9 |
| 20260508131525 | 56 | 85 | 0.0 | 0.0 | 0.00 | 0.00 | 0.00 | 80 | 1017.9 |
| 20260508130023 | 54 | 85 | 0.0 | 0.0 | 0.00 | 0.00 | 0.00 | 92 | 1017.9 |
| 20260508124521 | 53 | 85 | 0.0 | 0.0 | 0.00 | 0.00 | 0.00 | 97 | 1017.9 |
| 20260508123021 | 52 | 144 | 0.0 | 0.0 | 0.00 | 0.00 | 0.00 | 97 | 1017.8 |
| 20260508121520 | 49 | 142 | 0.0 | 1.0 | 0.00 | 0.00 | 0.00 | 97 | 1017.7 |
| 20260508120030 | 46 | 142 | 0.0 | 0.0 | 0.00 | 0.00 | 0.00 | 97 | 1017.5 |
| 20260508114515 | 44 | 142 | 0.0 | 0.0 | 0.00 | 0.00 | 0.00 | 97 | 1017.1 |
| 20260508113015 | 43 | 142 | 0.0 | 0.0 | 0.00 | 0.00 | 0.00 | 96 | 1017.0 |
| 20260508111511 | 41 | 142 | 0.0 | 0.0 | 0.00 | 0.00 | 0.00 | 96 | 1016.8 |
| 20260508110007 | 41 | 142 | 0.0 | 0.0 | 0.00 | 0.00 | 0.00 | 96 | 1016.4 |
| 20260508104505 | 41 | 142 | 0.0 | 0.0 | 0.00 | 0.00 | 0.00 | 95 | 1016.1 |
| 20260508103004 | 41 | 142 | 0.0 | 0.0 | 0.00 | 0.00 | 0.00 | 95 | 1016.0 |
| 20260508101504 | 41 | 142 | 0.0 | 0.0 | 0.00 | 0.00 | 0.00 | 95 | 1015.9 |
| 20260508100001 | 42 | 142 | 0.0 | 0.0 | 0.00 | 0.00 | 0.00 | 95 | 1015.7 |
| 20260508094602 | 42 | 142 | 0.0 | 0.0 | 0.00 | 0.00 | 0.00 | 95 | 1015.5 |
| 20260508093104 | 43 | 142 | 0.0 | 0.0 | 0.00 | 0.00 | 0.00 | 95 | 1015.4 |
| 20260508091608 | 44 | 142 | 0.0 | 0.0 | 0.00 | 0.00 | 0.00 | 95 | 1015.2 |
| 20260508090100 | 44 | 142 | 0.0 | 0.0 | 0.00 | 0.00 | 0.00 | 95 | 1015.1 |
| 20260508084550 | 45 | 142 | 0.0 | 0.0 | 0.00 | 0.00 | 0.00 | 95 | 1015.0 |
| 20260508083055 | 46 | 142 | 0.0 | 0.0 | 0.00 | 0.00 | 0.00 | 96 | 1014.9 |
| 20260508081550 | 46 | 142 | 0.0 | 0.0 | 0.00 | 0.00 | 0.00 | 96 | 1014.6 |
| 20260508080044 | 47 | 142 | 0.0 | 0.0 | 0.00 | 0.00 | 0.00 | 96 | 1014.6 |
| 20260508074544 | 47 | 142 | 0.0 | 0.0 | 0.00 | 0.00 | 0.00 | 96 | 1014.4 |
| 20260508073048 | 47 | 142 | 0.0 | 0.0 | 0.00 | 0.00 | 0.00 | 96 | 1014.3 |
| 20260508071545 | 47 | 142 | 0.0 | 0.0 | 0.00 | 0.00 | 0.00 | 96 | 1014.2 |
| 20260508070043 | 46 | 142 | 0.0 | 0.0 | 0.00 | 0.00 | 0.00 | 96 | 1014.0 |
| 20260508064542 | 46 | 142 | 0.0 | 0.0 | 0.00 | 0.00 | 0.00 | 96 | 1014.1 |
| 20260508063041 | 46 | 142 | 0.0 | 0.0 | 0.00 | 0.00 | 0.00 | 96 | 1013.9 |
| 20260508061538 | 46 | 142 | 0.0 | 0.0 | 0.00 | 0.00 | 0.00 | 95 | 1013.6 |
| 20260508060034 | 46 | 142 | 0.0 | 0.0 | 0.00 | 0.00 | 0.00 | 96 | 1013.4 |
| 20260508054534 | 46 | 142 | 0.0 | 0.0 | 0.00 | 0.00 | 0.00 | 95 | 1013.3 |
| 20260508053033 | 46 | 142 | 0.0 | 0.0 | 0.00 | 0.00 | 0.00 | 95 | 1013.3 |
| 20260508051535 | 47 | 142 | 0.0 | 0.0 | 0.00 | 0.00 | 0.00 | 95 | 1013.3 |
| 20260508050033 | 47 | 142 | 0.0 | 0.0 | 0.00 | 0.00 | 0.00 | 95 | 1013.2 |
| 20260508044530 | 47 | 142 | 0.0 | 0.0 | 0.00 | 0.00 | 0.00 | 95 | 1013.2 |
| 20260508043028 | 47 | 142 | 0.0 | 0.0 | 0.00 | 0.00 | 0.00 | 95 | 1013.0 |
| 20260508041526 | 47 | 142 | 0.0 | 0.0 | 0.00 | 0.00 | 0.00 | 95 | 1013.1 |
| 20260508040025 | 47 | 142 | 0.0 | 0.0 | 0.00 | 0.00 | 0.00 | 95 | 1012.9 |
| 20260508034529 | 47 | 142 | 0.0 | 0.0 | 0.00 | 0.00 | 0.00 | 95 | 1012.9 |
| 20260508033022 | 47 | 142 | 0.0 | 0.0 | 0.00 | 0.00 | 0.00 | 94 | 1012.7 |
| 20260508031525 | 47 | 142 | 0.0 | 0.0 | 0.00 | 0.00 | 0.00 | 94 | 1012.8 |
| 20260508030021 | 48 | 142 | 0.0 | 0.0 | 0.00 | 0.00 | 0.00 | 94 | 1012.7 |
| 20260508024520 | 48 | 142 | 0.0 | 0.0 | 0.00 | 0.00 | 0.00 | 94 | 1012.7 |
| 20260508023019 | 48 | 142 | 0.0 | 0.0 | 0.00 | 0.00 | 0.00 | 93 | 1012.6 |
| 20260508021515 | 48 | 142 | 0.0 | 0.0 | 0.00 | 0.00 | 0.00 | 93 | 1012.5 |
| 20260508020019 | 49 | 142 | 0.0 | 0.0 | 0.00 | 0.00 | 0.00 | 92 | 1012.4 |
| 20260508014512 | 49 | 142 | 0.0 | 0.0 | 0.00 | 0.00 | 0.00 | 92 | 1012.2 |
| 20260508013009 | 50 | 142 | 0.0 | 0.0 | 0.00 | 0.00 | 0.00 | 92 | 1012.0 |
| 20260508011506 | 51 | 142 | 0.0 | 0.0 | 0.00 | 0.00 | 0.00 | 91 | 1012.1 |
| 20260508010002 | 51 | 142 | 0.0 | 0.0 | 0.00 | 0.00 | 0.00 | 91 | 1011.9 |
| 20260508004601 | 52 | 142 | 0.0 | 0.0 | 0.00 | 0.00 | 0.00 | 91 | 1011.8 |
| 20260508003056 | 53 | 142 | 0.0 | 0.0 | 0.00 | 0.00 | 0.00 | 90 | 1011.8 |
| 20260508001556 | 53 | 142 | 0.0 | 0.0 | 0.00 | 0.00 | 0.00 | 90 | 1011.5 |
| 20260508000052 | 54 | 142 | 0.0 | 0.0 | 0.00 | 0.00 | 0.00 | 90 | 1011.4 |
| 20260507234554 | 54 | 142 | 0.0 | 0.0 | 0.00 | 0.00 | 0.00 | 89 | 1011.1 |
| 20260507233048 | 54 | 142 | 0.0 | 0.0 | 0.00 | 0.00 | 0.00 | 88 | 1011.1 |
| 20260507231550 | 55 | 142 | 0.0 | 0.0 | 0.00 | 0.00 | 0.00 | 88 | 1010.7 |
| 20260507230044 | 55 | 184 | 0.0 | 0.0 | 0.00 | 0.00 | 0.00 | 89 | 1010.5 |
| 20260507224542 | 55 | 184 | 0.0 | 0.0 | 0.00 | 0.00 | 0.00 | 87 | 1010.5 |
| 20260507223039 | 56 | 184 | 0.0 | 0.0 | 0.00 | 0.00 | 0.00 | 86 | 1010.4 |
| 20260507221539 | 56 | 209 | 0.0 | 0.0 | 0.00 | 0.00 | 0.00 | 86 | 1010.4 |
| 20260507220038 | 56 | 209 | 0.0 | 1.0 | 0.00 | 0.00 | 0.00 | 86 | 1010.3 |
| 20260507214537 | 56 | 209 | 0.0 | 0.0 | 0.00 | 0.00 | 0.00 | 85 | 1010.5 |
| 20260507213044 | 56 | 208 | 0.0 | 0.0 | 0.00 | 0.00 | 0.00 | 87 | 1010.4 |
| 20260507211537 | 56 | 208 | 0.0 | 0.0 | 0.00 | 0.00 | 0.00 | 88 | 1010.2 |